Theta_e
356 355 355 355 356 357 357 357 357 358 361 361 361 356 355 356 354 353 356 356 355 356 355 354 354 355 355 354 354 353 351 351 352 353 353 353 353 355 356 357 357 356 357 357 356 358 359 359 360 359 359 358 357 355 360 360 359 358 358 358 358 357 358 358 359 358 358 359 358 358 358 357 356 356 355 355 355 355 355 355 355 358 357 357 356
355 353 353 352 353 352 352 353 355 356 359 358 357 356 357 353 351 352 353 354 355 355 358 356 354 354 354 353 354 353 352 350 351 352 353 353 353 355 359 354 353 356 357 356 358 359 359 360 360 358 357 358 355 354 355 358 359 359 358 358 358 358 358 359 358 359 359 358 358 358 357 357 356 355 355 355 355 354 354 353 353 353 353 353 353
351 351 350 349 349 349 347 348 349 353 356 355 356 356 354 351 350 350 351 352 355 356 356 353 351 352 352 351 350 351 351 351 351 351 353 353 352 352 352 356 356 356 356 356 355 355 358 359 359 358 358 355 353 354 356 358 358 360 359 358 359 358 359 359 359 359 359 357 358 358 358 356 356 355 355 355 354 354 354 353 353 353 353 353 353
349 350 349 348 347 347 348 348 348 352 353 352 353 353 353 352 352 352 353 353 355 356 354 350 349 349 350 350 350 349 350 351 351 351 352 351 350 349 350 352 354 353 355 357 356 355 355 358 358 358 357 356 356 357 358 359 357 358 359 358 359 359 359 360 359 359 359 358 358 357 357 356 356 355 355 355 355 354 354 353 353 353 353 353 354
350 350 357 348 348 350 353 354 351 352 352 353 353 351 351 351 350 354 354 352 351 352 354 353 350 350 350 351 349 349 349 350 351 352 350 348 348 350 348 351 350 353 355 358 357 354 354 357 358 358 357 356 357 359 358 358 357 355 357 359 359 359 359 359 359 359 359 359 358 357 357 357 356 355 355 355 355 354 354 353 353 353 353 354 354
353 352 353 352 351 353 353 352 353 355 356 354 350 349 350 352 354 351 357 353 349 350 350 350 350 349 347 347 348 349 350 349 350 351 349 348 347 347 349 349 350 349 350 356 357 356 357 356 357 358 358 358 359 358 358 358 355 354 356 358 359 359 359 359 359 359 359 360 359 357 357 357 356 356 355 355 355 355 354 354 354 354 354 354 354
356 355 355 352 356 359 356 353 355 357 356 354 352 352 351 352 353 349 351 350 349 351 350 349 349 348 347 347 349 351 350 349 350 349 347 348 349 349 349 349 348 350 350 351 355 357 356 357 358 357 358 358 359 359 358 357 356 357 356 355 358 359 359 359 360 359 359 360 359 358 357 357 357 356 356 356 355 355 354 354 354 354 354 354 354
356 357 355 352 355 358 358 357 357 356 355 354 353 353 353 352 354 352 349 348 350 349 350 349 349 347 347 346 345 352 351 349 350 349 349 347 347 349 348 349 348 348 351 348 349 351 358 357 357 358 359 358 358 358 357 356 356 358 357 357 358 360 360 359 359 360 359 360 361 359 358 357 357 357 356 356 355 355 355 354 354 354 354 354 354
365 366 357 353 355 359 360 359 359 354 353 352 352 355 354 355 352 355 350 346 348 349 349 348 347 347 347 346 345 350 351 350 351 351 352 347 347 347 348 349 350 351 350 348 348 350 356 358 358 357 358 358 358 358 358 357 357 357 358 360 360 358 359 360 360 360 360 360 360 360 359 358 358 357 357 356 356 355 355 355 355 354 354 354 354
362 358 363 364 359 360 357 358 357 354 353 352 352 356 354 351 349 351 351 347 347 348 348 348 348 347 347 346 345 346 350 351 354 358 349 348 347 347 348 350 350 349 348 348 349 349 350 355 357 356 359 359 358 358 358 357 357 357 358 359 359 359 356 358 360 360 360 360 360 360 360 358 358 358 358 357 357 356 356 356 355 355 354 354 354
361 360 361 363 358 357 358 359 359 356 356 355 354 356 355 351 351 349 350 351 349 349 349 348 348 347 346 346 346 347 349 351 355 353 348 348 349 350 349 349 349 348 347 347 349 349 348 350 352 353 355 359 359 358 357 358 357 357 358 360 359 359 359 361 357 359 360 360 360 360 359 359 358 358 357 357 357 357 357 356 355 355 355 354 354
357 357 356 354 350 351 352 358 358 358 355 352 350 351 350 348 348 350 348 349 351 349 349 348 346 342 345 343 348 347 346 352 350 348 352 348 348 350 348 349 348 347 349 347 347 349 348 347 352 354 354 356 358 359 358 357 358 358 359 359 358 358 358 358 357 358 359 357 357 360 359 359 359 359 358 358 357 357 357 357 356 355 355 355 355
356 356 355 355 352 351 350 353 354 355 355 354 354 353 352 350 351 350 349 344 344 346 348 347 341 338 336 338 344 348 355 353 348 347 349 349 349 348 348 347 347 348 350 349 347 348 348 349 349 351 353 352 355 358 359 359 360 359 359 358 357 357 355 356 355 355 353 353 353 353 356 360 359 359 359 358 358 357 357 357 356 356 356 356 355
353 353 353 351 348 349 351 350 351 352 355 355 355 358 352 351 350 344 346 347 343 346 349 344 337 335 333 335 338 343 347 349 349 348 348 349 349 348 349 346 346 348 350 350 348 348 347 348 348 350 351 351 351 352 354 355 358 359 358 356 358 357 353 353 351 351 353 354 355 354 350 353 356 359 359 359 358 358 358 357 357 357 356 356 356
351 351 350 350 349 348 349 351 350 350 346 345 349 351 351 350 348 345 343 345 349 351 349 344 337 338 337 334 326 327 336 338 343 348 350 347 349 348 349 348 347 348 349 349 349 348 348 347 348 349 350 350 351 351 352 355 355 359 358 355 355 354 354 351 350 353 354 354 355 354 353 353 356 356 357 357 359 359 358 358 357 357 357 356 356
351 351 351 351 350 348 349 349 347 349 348 346 350 350 350 349 349 351 348 342 341 342 353 346 344 340 329 329 329 328 322 323 329 336 348 348 349 348 350 348 348 348 349 348 348 349 349 348 348 348 349 350 351 351 351 352 356 359 358 356 355 355 355 352 353 355 356 355 355 356 355 355 355 353 356 357 357 358 359 359 358 358 357 356 356
353 352 351 348 349 349 348 347 347 349 348 349 349 350 353 352 351 348 345 341 340 342 345 347 345 346 338 330 325 322 322 326 330 330 343 344 348 348 350 348 347 349 349 347 347 347 348 349 349 349 349 349 351 351 351 352 354 357 355 356 353 353 353 352 354 355 356 357 357 357 357 356 354 354 355 356 358 357 358 359 359 358 358 357 357
350 349 349 351 349 348 346 343 346 346 349 352 351 352 350 350 349 346 346 345 341 341 341 346 343 349 344 337 331 325 326 328 329 322 334 345 344 349 349 349 347 349 348 347 345 346 349 347 347 347 348 349 349 350 351 351 353 353 354 353 355 355 353 353 354 355 357 358 357 357 356 357 356 357 357 358 358 357 357 357 357 357 359 358 357
349 347 349 349 348 345 344 346 347 349 353 349 349 350 350 350 353 347 346 348 346 340 342 338 337 341 344 346 344 344 335 330 324 326 322 326 341 344 347 347 348 348 349 346 345 344 346 349 348 347 347 349 349 349 349 351 354 354 357 356 356 355 354 357 356 356 357 358 358 358 357 357 356 356 355 355 356 357 357 356 355 353 354 356 358
347 345 345 346 346 346 348 348 350 351 354 350 349 351 352 352 352 351 349 349 347 344 340 331 329 326 332 327 329 342 338 335 332 328 324 321 323 337 342 345 348 350 350 349 347 345 344 346 347 347 347 349 350 350 349 349 350 352 355 357 357 356 354 354 356 358 359 357 358 357 357 357 356 356 355 355 355 354 355 350 353 352 353 354 354
347 344 343 343 348 348 348 348 348 349 352 352 351 353 352 350 347 344 346 336 338 337 331 329 326 323 319 318 318 317 319 323 330 333 328 320 321 329 333 339 345 350 351 351 350 349 348 346 347 348 348 349 351 352 351 350 350 350 353 357 357 355 356 355 354 354 356 358 356 354 354 356 355 356 356 356 353 350 349 348 348 350 350 350 352
345 347 345 345 347 350 349 349 348 350 354 350 351 351 350 349 348 344 336 331 331 330 329 327 325 321 318 320 316 316 316 317 317 321 324 323 320 320 323 334 331 333 343 348 350 350 350 349 349 350 348 348 350 351 350 350 350 350 352 357 359 356 354 355 355 355 355 355 356 354 353 353 354 354 353 353 350 350 350 350 351 348 346 348 349
345 347 348 349 349 350 350 348 352 355 355 352 350 351 349 345 340 336 330 327 326 325 324 322 320 318 317 316 316 316 317 317 315 322 324 320 318 318 320 324 326 322 326 340 348 349 349 349 348 349 349 349 349 350 349 349 353 354 357 358 357 356 354 354 355 356 356 355 355 354 354 352 354 354 352 351 349 349 350 351 350 348 349 349 350
345 345 346 348 350 348 351 351 354 353 352 349 345 338 336 335 332 330 327 325 325 326 320 318 317 317 317 317 317 318 318 318 321 324 324 323 320 317 318 321 320 321 329 340 344 347 349 349 350 350 350 349 350 351 351 350 350 357 357 358 358 356 355 355 355 355 356 357 357 356 356 353 353 354 352 350 350 351 351 351 351 350 351 351 352
346 346 348 349 352 349 350 350 350 353 348 342 340 336 332 330 327 325 324 323 322 321 318 318 317 317 317 317 318 318 317 319 322 322 324 325 321 315 317 322 317 319 323 335 337 343 346 348 351 352 352 351 351 351 351 351 349 354 360 357 359 358 356 357 356 355 354 354 355 355 354 354 353 353 352 351 351 352 351 351 352 352 352 353 353
347 347 348 352 354 355 354 350 348 347 344 340 339 335 330 326 324 323 322 321 320 319 317 318 317 317 316 315 317 316 317 317 317 319 317 316 314 315 317 316 318 320 322 322 328 337 336 344 350 352 353 353 353 352 352 352 352 357 360 358 356 358 358 358 358 358 355 353 350 352 351 350 351 352 352 353 353 353 354 354 354 355 355 355 354
349 350 353 352 352 351 351 348 349 342 339 336 335 332 331 327 327 325 325 320 318 319 316 316 316 315 315 315 320 315 316 315 314 314 314 315 315 315 317 314 312 318 323 321 322 322 321 324 346 348 350 353 353 352 353 353 356 359 361 358 357 358 358 358 358 358 357 355 352 351 349 350 350 354 354 354 354 355 355 353 354 356 357 357 356
350 351 351 348 349 349 348 347 342 338 337 334 332 329 326 323 321 320 320 327 317 316 316 317 316 316 316 317 316 316 316 314 315 314 313 314 313 314 317 316 314 312 313 316 317 320 323 322 324 338 346 348 351 351 355 357 355 360 362 358 355 354 356 355 355 357 358 358 359 358 356 356 356 356 355 354 355 354 355 355 354 354 355 357 358
351 352 347 347 348 346 344 343 337 335 334 332 329 328 327 324 321 320 319 320 322 317 317 317 317 319 318 319 317 317 316 316 315 317 315 313 313 313 316 315 318 315 311 312 314 316 319 321 322 324 339 343 344 348 349 349 353 356 353 355 355 353 353 353 355 355 355 356 358 359 360 357 357 357 356 356 355 355 354 354 353 354 354 354 354
351 352 349 350 350 354 346 343 336 334 333 331 329 328 326 325 325 324 322 322 319 319 322 319 319 321 322 319 319 316 317 316 317 317 316 315 314 315 316 317 318 316 315 312 313 317 317 321 322 322 325 325 330 339 343 343 350 350 350 350 351 351 352 352 355 355 354 354 354 355 357 358 358 358 358 358 355 355 355 356 355 355 356 356 354
349 347 347 347 346 344 341 338 335 333 332 333 332 329 326 323 325 321 322 322 321 319 319 323 323 322 319 318 319 316 317 318 318 318 320 321 318 317 318 319 320 319 317 315 311 317 321 318 321 323 322 323 327 326 326 329 343 339 336 342 345 353 356 354 354 354 353 352 352 352 355 358 359 359 359 359 358 357 356 356 356 354 354 354 353
348 347 346 346 344 339 334 333 332 330 330 330 330 329 327 324 322 321 321 321 321 320 323 321 325 322 318 317 317 316 317 319 320 320 321 323 322 320 320 320 320 320 319 315 313 314 320 320 320 322 324 324 325 323 325 327 331 341 330 328 334 350 347 347 349 349 349 349 349 350 350 354 358 360 359 359 359 359 357 356 354 353 354 349 345
346 346 346 344 344 342 336 336 332 330 329 328 329 328 327 324 323 322 321 321 320 320 324 321 322 321 320 317 317 318 320 321 321 322 322 322 322 322 322 320 320 320 319 316 314 315 318 322 321 321 323 324 323 323 324 324 324 327 335 329 336 334 339 337 341 345 346 346 346 345 346 348 352 357 358 358 359 359 359 357 356 356 354 348 342
345 344 343 343 341 339 335 333 331 330 330 329 329 329 326 324 324 327 323 320 320 320 321 320 321 321 319 318 318 319 322 321 321 321 321 321 320 320 320 320 319 320 320 317 316 314 312 315 318 321 321 324 321 324 323 324 325 329 327 326 328 327 325 326 325 331 338 340 341 342 343 345 348 351 355 357 358 358 359 356 355 355 354 352 347
347 343 340 339 338 336 334 332 331 331 331 330 329 328 327 325 325 325 327 322 321 322 321 321 322 319 318 320 319 321 325 320 321 321 322 320 321 320 319 320 319 320 321 319 315 313 312 313 318 317 319 321 321 323 324 326 328 326 325 326 327 329 332 328 329 335 340 342 342 342 343 343 345 347 350 352 353 354 354 352 351 348 344 343 343
346 347 343 342 339 334 333 332 330 329 330 330 329 328 327 324 323 324 324 323 322 323 322 322 322 320 319 319 320 322 324 320 320 321 321 320 319 321 319 321 319 320 321 320 317 314 314 313 314 316 320 319 321 323 325 326 325 324 324 325 326 326 327 327 328 334 341 344 343 343 343 344 343 343 344 345 344 346 345 343 343 342 340 340 340
345 344 346 345 339 336 335 333 331 331 330 328 327 325 325 324 324 323 322 320 320 322 324 322 330 320 322 321 321 323 322 320 322 321 321 321 320 321 319 321 321 323 323 321 318 317 314 313 314 316 319 319 322 322 324 324 323 323 323 322 323 324 325 326 329 333 343 342 342 341 341 342 342 342 341 340 341 341 341 341 341 339 338 337 336
346 346 342 341 338 334 332 332 331 330 329 327 326 324 324 324 323 321 318 317 320 319 324 321 320 324 322 321 322 323 322 321 321 322 321 320 320 320 320 321 320 321 319 319 320 317 315 314 313 314 316 317 318 319 322 324 322 322 322 322 322 324 324 324 326 331 333 332 337 338 337 337 337 336 339 339 339 340 340 339 338 337 335 333 332
346 345 340 336 336 335 333 330 329 328 327 327 326 325 324 324 322 320 318 317 318 319 320 321 321 321 322 322 324 324 324 323 323 324 322 321 325 321 324 321 322 320 320 318 318 316 315 314 314 315 315 317 318 317 320 323 323 323 320 320 320 322 324 323 324 327 329 332 333 338 338 339 339 337 331 333 336 338 339 339 339 339 337 333 329
345 343 337 335 333 331 329 329 329 330 327 327 326 325 325 322 320 317 315 319 318 318 318 319 321 322 325 325 323 323 324 325 326 325 323 322 323 323 323 324 322 320 317 317 316 314 313 313 312 313 314 316 317 319 323 319 318 319 323 321 319 320 321 322 322 324 328 329 327 328 334 336 336 340 336 335 336 337 338 338 339 340 340 336 333
349 340 335 332 329 328 328 328 327 327 326 326 326 325 322 321 318 317 318 317 318 318 319 319 321 324 325 325 325 326 336 337 337 336 333 332 326 322 321 320 322 319 316 316 316 313 313 312 312 314 314 314 315 316 315 315 316 316 319 321 319 321 321 321 322 323 329 326 327 326 329 331 330 330 332 331 332 335 336 338 338 340 339 335 333
342 343 334 331 328 326 324 323 323 324 324 326 329 331 333 328 322 321 321 320 319 319 320 320 322 327 328 326 334 337 334 332 332 330 329 330 330 327 324 321 320 318 317 316 315 315 315 314 313 313 313 313 314 316 316 316 318 320 318 318 317 318 319 319 320 320 330 324 324 323 324 329 328 326 327 327 332 338 337 333 332 334 334 333 332
341 337 331 327 325 322 320 319 319 322 325 326 329 332 332 336 332 326 323 323 323 322 322 323 325 327 327 326 325 329 329 328 325 328 328 329 329 329 329 328 327 323 319 317 316 315 317 317 317 316 315 315 315 317 317 318 319 318 317 317 318 318 315 314 312 321 328 325 322 319 321 324 326 324 324 327 328 330 335 335 333 335 335 334 333
338 332 327 325 323 320 319 318 319 322 323 329 330 331 332 335 336 328 323 324 325 323 323 323 323 322 323 323 322 324 325 325 323 320 324 327 328 328 327 326 325 326 326 322 320 319 319 319 319 320 319 318 317 317 318 318 318 317 317 317 316 315 314 313 313 314 320 329 320 318 319 322 324 325 324 327 328 328 330 332 333 334 334 334 333
332 329 326 323 320 318 317 317 319 322 321 329 329 331 332 335 333 329 323 324 324 321 319 319 319 319 320 321 319 320 321 326 325 319 318 319 325 325 325 325 325 326 325 326 327 325 324 320 319 318 319 318 316 318 320 320 321 317 316 315 315 315 316 315 314 315 321 327 321 317 316 319 322 325 324 326 326 327 330 329 329 330 331 332 332
330 328 326 322 319 317 317 318 318 319 320 328 329 331 331 332 332 328 321 323 321 319 319 318 319 318 318 317 317 318 317 319 320 319 317 316 316 316 317 316 317 322 325 326 326 326 327 323 319 317 320 321 319 319 323 323 320 318 315 315 314 316 316 317 317 319 322 325 321 317 317 320 323 323 323 323 326 329 328 328 328 331 330 330 329
328 327 324 320 320 322 318 317 317 318 322 327 329 329 328 329 330 329 321 323 320 318 319 319 319 318 318 319 318 317 317 315 321 322 320 316 315 315 315 316 316 317 318 319 320 320 324 323 321 321 321 321 321 320 320 320 321 321 321 319 319 318 318 318 320 321 322 324 323 321 317 320 321 320 322 323 326 327 328 330 329 331 331 330 330
326 326 325 323 320 317 318 317 316 314 318 326 326 326 326 327 330 323 321 320 319 318 318 319 319 318 319 319 318 317 316 314 323 324 324 321 314 314 314 315 316 317 318 325 324 326 326 324 323 323 323 323 326 326 326 323 321 321 324 324 320 318 317 316 315 318 319 322 325 322 318 318 319 320 320 323 325 324 327 327 330 331 330 330 330
324 322 322 322 320 318 318 318 316 316 319 324 323 325 324 326 329 319 319 319 317 317 317 318 318 319 321 320 318 316 315 314 324 323 323 324 313 314 313 314 315 315 316 318 323 325 326 326 327 327 327 326 326 326 325 327 326 324 318 317 316 317 315 313 315 315 315 320 325 325 322 319 320 319 319 320 325 327 326 327 329 328 326 329 329
323 321 319 319 319 321 320 317 317 317 317 325 324 323 323 325 329 318 318 317 314 315 317 318 319 319 324 328 328 319 316 317 323 321 323 323 313 313 313 313 314 313 314 317 319 322 326 326 326 326 326 327 327 326 326 326 327 326 321 317 317 317 316 316 313 317 319 321 325 325 319 318 319 321 319 319 324 329 326 328 332 330 324 323 326
322 320 324 317 317 318 319 319 333 322 318 324 323 322 323 325 326 317 318 314 314 314 316 317 319 318 319 324 327 325 323 322 320 319 321 323 315 314 313 313 313 313 314 316 318 319 320 319 319 322 323 325 326 324 324 326 325 325 324 321 321 319 316 316 317 317 315 315 321 325 318 316 318 319 319 313 313 319 326 328 330 329 330 331 327
Wind_Speed
7 7 6 7 6 6 5 6 6 5 4 5 3 2 3 4 4 3 4 4 4 4 3 3 4 4 4 4 4 4 4 4 5 5 4 4 5 7 12 11 11 14 18 19 19 20 20 17 18 17 15 16 13 15 18 18 17 18 18 18 17 16 17 17 16 16 16 16 17 18 18 18 17 16 17 17 17 17 17 17 16 17 17 17 17
7 6 6 7 6 6 5 6 5 4 4 5 3 3 4 3 3 3 4 3 3 4 3 3 3 4 4 4 5 5 4 4 5 5 4 4 5 5 11 10 12 13 16 19 20 20 20 18 17 17 17 16 15 18 17 17 18 18 18 18 18 17 17 18 17 18 17 17 17 18 19 19 18 17 17 17 17 17 16 16 15 15 14 14 13
6 7 6 6 6 5 5 5 5 5 4 3 2 3 3 4 4 4 3 3 4 4 4 5 4 3 4 4 5 5 4 4 4 3 4 4 4 3 3 9 12 12 14 16 17 17 20 18 16 16 18 17 16 16 18 18 18 18 18 19 19 18 18 18 18 17 17 17 18 18 18 19 18 18 17 17 16 16 16 16 16 16 15 15 14
6 6 6 5 5 5 4 6 5 4 4 3 2 2 3 4 3 2 3 3 4 4 4 4 5 4 2 4 5 5 5 3 4 4 4 2 1 2 3 4 8 12 12 17 16 16 18 18 18 18 19 20 19 19 19 15 17 17 19 19 20 19 18 18 18 17 17 17 17 18 18 19 19 19 18 16 15 15 16 16 16 16 15 14 14
7 6 4 6 3 2 2 1 4 4 4 4 3 2 2 1 1 1 2 2 2 4 4 3 5 5 3 3 4 5 5 3 4 4 4 2 3 2 2 2 3 5 14 17 16 15 17 16 18 18 18 19 20 20 16 17 15 15 17 19 20 19 19 19 18 18 17 17 18 18 18 19 19 18 18 17 17 16 16 15 15 15 15 15 14
7 5 5 5 4 4 4 4 4 4 4 3 4 3 2 1 0 2 3 2 3 4 4 5 5 5 3 3 1 5 4 3 4 4 2 3 3 4 3 4 4 3 4 14 17 17 18 18 18 19 18 19 19 19 20 19 17 18 18 18 20 19 19 19 19 18 18 18 19 18 18 18 19 18 18 18 18 17 16 16 15 14 15 16 15
6 3 3 5 6 4 2 5 5 5 6 5 4 3 2 1 0 2 3 3 3 4 3 4 5 6 6 5 5 3 2 4 3 3 3 4 4 5 5 4 4 4 5 2 10 18 17 18 20 21 20 19 19 19 18 16 19 19 18 18 19 20 20 20 19 19 19 19 19 20 20 19 19 18 18 18 18 17 16 16 15 15 15 15 15
1 3 4 6 7 6 5 4 4 4 5 4 3 4 2 1 0 0 2 3 4 4 4 4 4 6 5 5 5 3 4 3 4 3 3 2 2 4 4 4 4 4 5 4 2 7 21 20 18 19 19 20 19 16 19 17 19 19 19 21 21 21 21 21 20 20 20 20 20 21 21 19 19 19 18 17 17 17 17 17 16 16 16 16 15
2 3 1 5 7 6 5 2 3 4 4 3 3 3 2 1 0 1 1 2 3 4 5 4 5 5 5 5 4 4 4 4 4 3 3 3 3 4 4 4 5 7 3 5 5 4 13 20 20 21 19 19 16 16 18 20 20 20 20 22 22 20 21 21 21 20 20 20 20 21 20 20 19 19 18 17 17 17 17 18 17 17 16 16 16
6 5 5 0 2 4 5 5 4 4 4 3 3 2 2 2 0 2 2 2 3 3 5 5 5 6 6 5 5 4 4 3 3 2 3 3 3 3 4 4 5 4 2 3 4 5 3 11 19 20 20 18 18 18 18 20 20 19 20 20 18 20 21 21 21 20 20 20 20 20 20 21 20 20 18 18 17 17 17 17 17 18 17 17 17
3 4 4 6 4 2 4 5 2 3 3 2 2 2 1 0 0 2 2 2 3 3 4 4 6 5 5 6 5 3 0 1 1 3 2 2 3 3 3 4 4 3 2 3 3 4 5 4 8 9 11 21 18 18 19 19 18 19 20 20 20 20 21 20 19 20 20 20 19 19 20 19 20 19 19 19 18 18 18 18 18 18 17 16 16
3 2 5 4 2 6 8 7 7 3 1 2 2 2 2 1 1 1 3 3 2 2 3 4 4 3 4 4 4 2 0 1 1 2 2 2 2 3 3 4 4 3 4 4 4 4 5 5 5 7 6 13 20 18 19 20 20 20 20 20 20 21 22 20 19 17 15 15 18 20 19 19 20 19 19 19 19 20 20 19 19 18 17 16 16
2 2 4 4 3 2 2 5 4 5 2 2 2 2 2 1 1 1 1 2 2 2 3 1 3 5 3 4 3 1 2 2 3 1 2 2 3 3 3 4 3 5 4 4 4 4 5 6 5 4 6 5 9 17 19 19 19 20 20 19 18 20 19 17 15 11 13 17 18 18 19 21 21 20 20 19 20 20 20 20 19 18 18 17 16
0 1 1 2 3 3 2 1 0 4 2 1 2 2 2 1 0 2 0 1 1 2 4 2 3 1 4 6 4 4 3 2 3 3 2 3 3 4 4 4 5 5 4 5 5 5 4 4 5 5 5 6 6 5 9 13 16 22 20 18 19 18 17 17 11 18 21 20 18 19 19 20 21 21 20 20 21 20 20 19 19 18 18 17 17
1 2 1 1 1 2 1 1 2 1 2 4 3 1 1 1 0 0 3 1 1 3 4 1 2 1 1 1 3 3 2 3 2 3 3 3 4 4 4 5 6 5 5 5 5 5 4 4 4 5 6 6 6 6 7 9 10 16 20 19 18 19 19 18 20 22 22 22 21 21 20 22 20 18 18 20 21 21 20 20 20 19 19 18 18
1 2 2 0 2 3 2 1 2 3 2 4 1 2 0 0 1 1 0 2 2 3 2 2 3 0 2 1 1 0 3 3 4 4 2 3 4 4 4 4 4 4 4 5 6 6 5 4 5 5 6 6 5 6 7 6 11 17 20 19 17 19 20 23 23 24 25 25 24 23 24 26 22 22 23 23 21 21 20 20 20 20 19 19 19
0 0 1 1 1 3 3 4 5 3 4 4 2 1 0 0 1 0 0 0 3 1 3 1 3 5 3 1 2 2 1 5 3 4 0 2 3 4 4 5 5 5 5 5 4 4 5 6 6 6 6 6 7 7 7 7 7 9 12 16 20 20 20 22 24 26 26 25 24 25 25 25 23 24 24 24 24 21 21 20 20 19 19 19 18
0 0 1 0 0 4 5 5 4 4 3 2 1 1 1 1 2 1 0 1 1 2 3 6 6 1 5 3 2 2 3 3 1 3 2 1 2 4 4 4 5 5 5 4 5 5 5 5 5 6 6 6 7 7 7 7 7 7 6 10 19 23 23 24 26 26 26 25 25 24 24 25 24 24 25 26 24 22 21 20 18 17 20 20 19
1 1 2 1 0 1 1 2 2 2 2 1 0 0 1 1 0 0 1 1 0 2 4 4 5 2 2 3 3 2 1 1 3 1 3 2 2 3 4 2 3 5 6 5 6 5 5 6 6 6 6 6 6 6 6 7 10 10 13 13 17 18 23 24 26 27 26 25 24 24 24 24 22 22 22 23 23 23 22 21 18 19 17 19 20
1 0 1 1 1 1 1 2 2 3 2 2 2 1 1 0 1 1 2 3 2 3 2 3 3 3 3 4 4 1 3 3 4 4 3 1 2 2 2 2 3 4 6 6 6 6 6 6 6 6 5 5 5 5 6 6 6 8 9 17 18 19 21 21 25 25 25 24 24 24 23 21 23 23 23 22 24 22 17 17 18 19 20 18 19
1 1 1 1 2 2 3 2 2 1 1 2 2 1 0 1 2 2 1 1 2 1 1 4 3 3 4 5 4 5 4 1 1 0 3 2 3 1 4 2 1 5 6 6 6 5 6 6 5 5 5 5 5 6 6 6 6 7 8 15 19 21 19 21 23 24 25 24 23 21 20 21 23 23 20 21 16 11 14 17 21 20 19 21 23
0 1 1 3 3 2 1 2 2 3 2 2 1 0 0 1 2 2 1 4 3 4 3 2 1 1 3 2 5 5 6 6 5 6 2 1 1 1 1 1 2 5 3 4 6 6 5 4 5 5 5 5 6 6 5 6 6 6 9 15 17 19 17 20 21 23 23 22 21 21 22 21 21 22 21 17 16 18 22 23 20 16 23 27 25
1 0 2 2 2 2 1 1 1 0 1 0 1 1 1 3 3 2 5 5 4 4 4 3 3 5 5 5 4 3 1 2 4 3 1 2 3 3 2 2 1 3 4 4 3 5 4 2 4 5 5 5 5 6 7 7 10 12 18 17 18 17 15 18 21 20 21 21 21 22 22 25 24 22 23 17 18 22 23 21 17 17 24 28 29
1 1 1 1 1 1 2 2 2 3 4 2 3 6 6 4 3 5 4 4 4 4 4 5 5 5 5 5 5 4 4 4 3 2 2 2 2 0 1 2 1 2 3 3 2 3 5 5 5 5 5 4 5 6 7 7 9 19 15 18 19 18 19 19 19 19 20 19 17 21 24 24 25 25 21 16 21 22 23 25 23 29 32 31 29
1 1 1 2 1 2 3 3 3 3 4 6 5 5 5 5 5 5 5 5 4 4 5 4 4 5 3 3 5 5 5 3 3 3 2 0 1 3 2 0 0 1 2 1 1 2 2 3 5 5 5 5 5 5 6 6 7 11 17 12 19 16 17 18 18 18 18 19 21 20 19 21 23 23 17 15 20 25 26 26 27 30 31 32 32
0 0 1 2 2 2 2 2 3 4 5 7 6 5 5 6 5 5 5 3 4 5 5 4 4 3 4 6 5 5 5 4 3 3 3 4 5 4 3 3 0 0 1 2 1 1 2 3 4 3 2 5 5 4 5 7 8 14 17 12 11 14 15 17 18 17 17 17 13 16 10 11 14 15 20 25 26 27 27 28 28 29 30 31 32
2 1 1 2 2 2 2 3 4 5 6 6 6 5 4 5 5 4 4 4 5 5 5 5 7 6 6 4 5 5 5 5 4 5 4 4 2 3 2 3 4 3 1 1 2 1 1 2 4 4 5 5 4 5 6 6 8 13 14 9 7 11 12 13 13 16 16 14 13 12 13 17 18 19 18 19 22 24 26 27 29 30 30 31 31
1 0 1 2 2 2 3 5 5 6 6 6 5 5 4 5 5 5 4 3 5 5 3 5 6 5 4 4 5 5 5 6 5 5 5 4 5 5 4 1 0 3 3 0 1 1 2 1 1 2 3 5 5 4 6 8 6 11 11 6 6 6 9 11 11 11 13 13 12 12 13 15 17 17 17 18 20 20 21 24 25 27 27 28 29
2 1 3 3 2 3 4 5 5 6 6 5 5 4 4 5 5 4 3 3 4 3 3 5 4 4 5 5 4 5 5 5 6 6 6 6 6 6 5 5 1 2 1 2 2 2 1 2 1 1 2 4 5 5 5 3 7 9 6 6 6 6 9 11 11 10 11 11 12 13 13 10 14 16 16 16 17 18 18 19 21 22 24 26 27
2 2 3 3 3 3 5 6 5 6 6 5 5 5 4 5 4 4 3 3 3 3 2 3 3 4 5 6 6 6 6 7 7 6 6 6 6 6 6 6 5 5 1 2 2 3 5 6 6 6 7 8 6 5 2 3 8 12 7 5 4 4 8 9 9 8 8 11 11 11 10 7 11 14 15 15 16 17 18 18 18 18 20 22 20
3 3 3 3 3 4 5 6 5 6 5 5 4 5 4 5 4 5 4 4 4 4 4 2 2 4 5 5 6 6 6 6 6 6 6 6 6 6 6 6 7 5 4 2 1 2 3 6 4 4 6 7 8 4 4 3 3 4 2 0 3 7 12 7 6 8 9 9 9 9 9 10 13 14 14 13 14 15 15 16 16 16 17 16 14
2 2 3 3 4 5 5 6 5 5 5 5 5 5 4 4 4 5 4 5 5 4 4 4 2 4 4 4 4 4 4 5 5 5 5 5 5 6 6 6 6 5 4 3 3 2 3 5 5 6 8 8 5 6 6 6 7 8 4 3 3 6 2 0 3 3 5 6 7 7 8 10 13 15 14 13 13 13 13 13 14 14 14 11 4
3 3 2 3 3 4 5 5 5 5 5 5 5 5 4 4 4 3 4 4 4 3 3 4 3 3 3 4 4 4 3 5 5 5 5 4 4 5 4 5 5 5 5 5 5 5 1 1 3 6 7 9 7 7 9 8 8 7 5 4 2 2 1 3 3 4 4 5 6 7 9 10 11 13 13 13 13 13 11 11 11 11 10 2 7
2 3 3 3 4 5 5 5 5 4 4 4 4 4 4 4 2 2 2 3 4 3 2 3 3 2 2 3 4 3 2 3 3 4 3 3 3 4 3 4 5 4 3 5 3 4 6 5 6 5 6 8 8 7 8 9 9 8 6 5 4 3 3 2 2 2 2 3 3 2 3 8 10 11 11 11 12 12 10 8 4 4 3 4 11
3 3 5 4 5 5 5 4 4 4 3 4 4 4 3 3 3 3 3 3 3 2 2 1 2 2 4 3 3 2 1 2 2 2 3 3 2 3 2 2 3 2 3 3 3 4 6 5 2 5 5 5 4 7 8 7 6 6 4 3 3 3 3 3 2 1 2 5 5 4 1 4 8 11 10 8 7 7 5 2 0 4 7 7 7
4 2 3 4 5 5 5 4 4 4 5 5 5 4 4 3 4 3 3 3 3 1 1 1 1 2 2 3 2 2 1 1 1 2 3 4 2 2 3 2 2 2 1 1 1 1 1 5 4 3 3 3 3 3 5 5 6 7 5 4 1 3 3 4 2 1 2 4 5 4 2 1 4 6 7 6 4 3 5 5 4 6 8 9 8
3 3 3 3 4 4 5 4 4 5 5 5 4 4 4 4 3 3 3 3 3 4 2 2 1 0 3 3 2 1 1 3 2 2 2 3 4 2 2 1 1 0 0 1 1 0 2 4 6 3 3 2 2 3 3 5 6 4 4 4 3 3 3 3 3 2 1 2 4 4 4 3 2 3 5 5 4 5 6 6 6 8 9 9 8
3 2 3 3 3 4 6 6 6 6 5 5 4 3 4 4 4 3 4 4 3 3 3 3 1 1 2 4 3 1 3 4 4 3 3 3 2 0 1 0 0 1 2 2 1 1 2 3 4 7 5 4 3 3 3 3 4 4 4 4 1 3 4 5 4 3 3 1 1 0 2 3 5 6 6 6 7 6 7 8 7 5 5 4 3
3 2 2 5 6 8 7 7 6 5 5 4 5 4 4 4 4 4 5 5 4 3 4 4 4 3 3 3 3 3 3 5 6 4 3 1 1 2 1 1 0 1 4 4 4 4 4 5 4 3 6 4 2 4 4 3 3 1 3 4 3 0 3 3 4 4 3 2 4 5 3 3 5 5 6 7 7 7 7 8 8 11 7 5 6
3 3 6 8 7 7 7 6 5 5 5 5 4 4 4 4 3 4 4 4 4 4 5 5 4 3 1 0 3 4 4 4 5 3 3 3 2 1 3 1 1 2 4 5 5 5 5 4 4 6 4 6 4 3 3 2 2 2 2 1 4 5 4 2 1 2 3 2 3 3 2 3 3 2 5 6 7 7 8 8 9 12 12 5 6
3 5 7 8 9 8 7 6 5 4 4 4 3 3 3 3 3 4 4 4 4 4 5 6 5 3 1 0 0 2 5 9 11 9 6 3 0 1 3 2 3 4 5 5 6 5 5 5 6 5 5 5 5 5 4 3 1 1 1 2 2 4 5 6 5 2 0 1 1 2 3 4 1 2 0 1 2 4 5 8 6 9 13 10 7
3 5 6 7 7 7 7 6 4 4 4 3 6 9 8 4 4 4 4 3 4 4 5 6 6 4 2 4 5 11 11 12 12 11 11 11 10 6 4 3 4 5 5 5 5 5 5 5 6 5 5 6 5 5 4 3 2 0 1 0 1 3 5 4 2 3 2 2 3 4 3 2 1 2 2 2 3 2 2 2 4 6 9 11 10
4 7 7 8 7 6 6 5 5 4 3 3 9 8 10 11 5 4 4 5 5 5 4 5 5 6 5 4 3 6 7 8 7 12 11 12 11 10 11 10 8 5 4 4 4 3 4 5 5 4 4 6 6 4 4 3 2 2 1 1 3 2 2 2 2 4 1 1 2 3 6 3 2 3 3 5 4 3 3 4 6 8 10 10 9
5 7 8 7 6 5 5 5 4 3 2 7 8 9 9 9 9 5 5 5 5 6 6 5 4 4 3 3 3 3 3 3 3 4 7 11 11 10 10 10 9 9 8 5 3 3 3 4 4 4 4 4 4 3 3 2 3 2 2 2 2 3 3 2 2 2 2 1 1 2 6 4 2 4 4 4 4 3 4 6 9 9 9 9 8
5 8 7 7 6 5 5 5 4 2 2 7 6 8 8 8 10 8 5 4 5 5 4 3 3 3 2 3 2 2 2 6 3 3 3 4 8 10 10 11 11 10 8 8 7 3 2 4 3 4 4 3 3 3 2 2 1 3 2 3 2 3 3 3 3 3 4 1 2 2 3 4 1 2 4 5 3 2 1 1 3 3 4 4 5
7 7 7 7 5 4 4 4 3 2 2 5 5 7 8 8 9 7 4 3 3 4 4 4 4 3 2 2 2 2 2 3 3 3 3 3 4 4 5 5 5 8 10 9 9 10 7 3 3 4 4 3 5 3 4 3 3 4 4 5 3 3 3 3 2 3 6 2 3 1 2 5 2 4 5 6 3 1 2 3 3 3 2 0 2
8 8 7 6 5 4 4 4 3 2 1 3 5 7 7 8 8 7 4 4 5 5 5 4 4 1 2 2 1 0 2 3 4 4 3 3 3 4 4 4 5 5 5 5 4 4 4 4 4 5 6 5 5 6 5 4 5 5 4 4 4 3 3 3 3 4 6 4 3 3 4 4 1 2 3 3 1 2 2 2 4 5 4 3 4
5 5 4 5 6 5 4 3 4 2 0 2 4 4 6 6 7 4 4 4 4 4 5 5 4 2 1 1 0 1 3 3 6 9 8 2 2 4 5 5 6 6 6 6 9 9 7 5 4 5 5 6 7 5 5 4 5 4 5 4 1 2 3 4 5 4 2 3 3 5 1 3 1 2 2 2 0 1 1 2 3 3 2 3 4
6 5 4 4 4 5 4 3 4 3 1 1 2 4 5 6 4 5 3 3 3 4 4 4 3 2 0 1 1 3 3 3 6 8 9 6 3 4 5 5 6 5 7 6 8 10 10 10 10 11 11 10 9 9 10 10 7 5 3 3 5 4 4 4 5 3 3 1 1 2 3 2 2 2 1 1 0 0 0 1 1 1 1 4 4
6 5 5 4 3 4 4 4 3 4 2 1 2 4 5 7 5 3 3 3 3 3 5 5 4 4 2 8 7 3 3 3 7 8 10 4 3 3 4 5 6 7 7 6 6 6 9 10 10 9 9 7 6 8 9 8 6 5 5 6 3 4 5 5 4 1 2 2 2 2 2 3 0 0 0 2 1 1 1 1 2 2 1 3 5
6 4 4 5 4 3 4 4 7 4 3 1 2 4 7 6 4 3 4 3 3 4 4 5 4 4 3 6 7 6 4 5 7 7 7 5 2 3 3 4 5 6 6 6 7 7 6 6 5 5 4 6 4 3 5 5 6 3 2 4 3 3 4 4 3 0 2 2 1 2 1 1 1 1 1 0 1 1 0 1 3 2 2 4 6
Wind_Direction
233 232 235 235 237 230 217 219 222 221 205 233 227 226 245 232 228 249 271 262 262 257 230 227 234 240 238 254 246 231 212 208 219 218 214 212 204 211 219 219 212 212 206 202 206 205 208 205 203 191 197 200 202 222 194 188 186 187 191 191 190 194 195 193 192 191 189 187 186 180 178 180 183 184 179 174 171 172 173 175 176 182 184 186 184
234 235 228 240 236 230 223 227 222 204 193 227 198 203 229 218 232 247 260 287 299 267 258 253 235 226 222 237 248 241 218 210 222 219 210 209 215 218 218 200 234 219 212 208 204 202 203 204 196 188 198 197 188 222 210 197 188 188 190 191 192 194 194 194 196 191 190 192 191 186 182 179 181 184 182 177 174 174 175 176 175 178 184 180 180
239 236 223 232 244 238 233 236 216 199 190 202 183 191 200 204 212 230 260 286 285 276 273 280 277 237 225 226 242 244 235 220 225 230 224 215 216 205 234 232 205 224 221 213 205 208 204 204 193 185 194 183 201 206 216 198 201 190 190 192 193 195 196 195 196 196 193 192 191 191 188 182 181 182 182 180 178 176 177 178 178 179 182 183 185
226 226 219 230 244 254 241 221 193 160 143 137 155 204 209 207 211 228 255 256 273 285 279 285 289 276 230 227 243 248 245 222 214 217 224 190 119 216 229 234 225 214 227 226 208 208 205 199 197 188 190 192 195 208 207 202 209 204 191 193 195 196 198 196 197 195 197 195 192 195 194 189 183 182 181 182 181 183 181 181 180 180 182 185 187
216 207 212 223 220 129 117 134 133 130 133 149 180 193 193 181 302 257 273 285 307 304 307 291 288 292 287 244 213 241 246 226 227 213 199 142 176 207 235 260 256 239 223 214 209 199 209 203 201 194 188 193 197 206 198 204 198 224 209 195 197 198 199 198 198 197 197 200 192 198 197 195 189 184 181 181 185 188 187 186 185 183 182 184 190
222 200 170 142 143 157 136 123 121 126 127 142 181 189 159 145 316 15 323 333 314 306 324 317 297 298 307 313 221 230 223 222 229 222 160 154 223 211 201 211 242 226 258 218 203 199 204 204 199 198 195 199 199 200 198 200 190 200 227 207 199 201 200 201 199 196 200 201 196 197 199 198 194 189 185 183 187 190 192 191 191 188 185 183 189
218 182 146 77 45 12 140 154 154 147 152 178 161 152 142 149 103 2 313 321 320 306 309 299 308 319 321 335 320 268 224 216 218 208 195 181 180 204 198 202 205 212 209 267 211 199 202 208 198 201 203 198 197 194 194 195 194 199 204 228 212 201 204 203 200 199 200 204 199 199 199 201 199 196 191 189 189 190 192 196 196 196 193 189 188
284 228 153 136 142 189 216 172 149 138 142 141 132 142 144 103 64 61 340 324 330 311 323 315 319 314 315 321 312 272 234 203 207 207 190 188 180 210 219 211 206 208 172 184 250 214 203 205 202 202 200 198 197 192 195 199 204 204 199 208 218 211 204 206 204 201 200 204 204 199 200 200 202 203 199 195 194 192 193 197 201 202 200 197 196
355 318 205 150 161 178 170 135 133 135 130 132 130 144 128 126 321 283 192 279 305 311 316 317 315 309 304 303 296 276 227 201 203 207 155 195 208 214 219 226 222 220 174 165 189 222 213 205 202 202 201 198 197 195 199 204 208 211 207 210 207 216 214 206 208 205 203 205 208 203 203 202 202 204 205 201 199 199 198 198 200 202 202 203 203
355 2 349 305 160 138 127 168 151 137 136 139 144 141 115 110 273 276 239 248 296 304 305 310 310 307 310 309 301 276 232 196 189 178 166 181 185 214 206 206 218 210 176 161 169 203 213 211 211 207 200 197 198 203 205 209 209 212 212 215 215 214 218 217 209 210 208 206 210 210 204 206 204 205 208 209 206 206 205 206 204 203 204 204 206
22 18 12 1 13 40 127 115 114 112 114 118 114 108 108 70 217 293 291 254 247 272 276 289 300 304 307 309 308 269 228 238 150 132 188 179 181 202 187 203 192 201 189 181 186 184 189 195 204 211 206 202 202 205 209 208 210 213 215 215 211 219 218 220 219 214 212 209 210 214 213 208 208 209 209 211 210 209 209 210 210 208 207 207 208
54 51 66 68 12 348 340 6 20 6 64 95 94 93 112 97 335 291 313 311 265 271 287 295 292 300 307 334 346 7 323 271 198 171 160 173 172 154 199 192 183 198 195 183 192 186 188 193 202 200 201 212 209 204 209 216 216 214 218 219 214 218 221 215 214 224 230 228 223 216 217 215 210 210 213 214 215 214 212 212 213 212 210 211 213
59 61 65 79 118 151 341 6 9 318 289 158 143 139 150 147 246 310 302 298 327 345 292 301 346 333 336 352 328 304 269 232 249 213 162 173 158 158 192 191 198 202 194 181 188 192 187 191 198 192 197 193 218 217 214 212 217 218 218 219 215 220 224 223 218 220 222 230 236 240 228 218 216 212 211 215 218 219 217 215 214 215 213 211 212
324 345 79 81 50 46 80 93 166 266 212 136 82 96 102 124 73 356 313 314 347 290 295 9 357 25 330 329 326 312 287 259 260 244 186 161 162 164 177 192 203 206 200 196 191 196 189 186 191 196 194 196 202 207 221 222 222 222 218 215 220 221 224 227 210 219 226 227 222 218 232 239 226 221 216 213 217 220 221 219 217 216 216 216 216
274 287 225 146 89 54 50 357 144 228 32 35 253 137 162 155 161 176 306 350 277 270 278 175 255 266 269 302 304 3 326 334 287 244 191 172 166 171 182 195 201 197 199 202 201 201 205 199 199 200 198 201 205 210 216 222 221 224 223 217 213 220 217 214 208 221 223 227 230 225 221 227 228 231 232 228 219 216 220 221 220 218 217 219 219
294 277 277 37 156 191 193 123 66 332 110 251 259 235 125 265 160 212 193 5 357 309 261 209 206 177 325 228 267 149 341 304 302 299 173 179 189 194 184 194 197 194 194 201 204 199 199 197 212 210 209 207 206 214 220 225 229 226 225 217 217 219 215 211 215 218 219 220 224 226 220 224 222 220 221 222 228 225 217 218 220 220 219 221 221
123 341 55 91 188 158 137 141 158 164 239 236 215 207 183 219 188 170 116 147 313 306 303 238 264 203 195 26 346 15 238 259 323 295 118 163 237 224 202 183 193 199 202 206 203 202 192 199 201 206 211 209 210 210 216 224 230 230 226 218 213 223 222 219 220 223 223 219 219 224 226 224 219 223 226 223 223 222 223 217 217 220 222 221 222
69 6 317 131 146 149 155 167 167 167 238 231 273 20 4 293 305 212 348 185 229 319 298 316 333 267 216 199 169 202 272 273 34 291 313 284 260 230 233 190 189 200 206 203 202 208 208 210 205 206 206 208 210 209 209 213 219 223 226 221 211 209 214 218 220 223 225 224 222 221 224 227 224 223 224 226 223 221 223 225 228 230 221 220 225
102 14 8 114 116 92 109 150 198 219 228 150 39 262 251 250 265 68 265 280 182 273 311 310 335 357 322 292 293 285 205 326 272 308 335 319 313 266 262 225 190 204 215 210 206 204 211 211 215 218 220 217 215 218 219 219 219 218 222 224 222 207 215 215 216 219 223 226 226 224 223 225 226 227 228 229 229 228 225 224 220 225 239 238 227
166 91 74 111 157 256 281 261 198 210 214 167 206 214 210 300 332 321 317 285 237 229 283 334 43 309 335 10 347 306 285 257 240 220 217 271 306 306 272 265 218 219 221 222 208 209 211 211 206 210 219 226 224 225 225 227 230 231 231 230 226 220 216 221 225 227 228 226 227 228 226 228 228 228 227 227 229 230 229 226 228 225 232 239 247
136 145 149 220 210 229 234 207 192 223 198 195 211 216 268 333 10 349 346 47 59 69 85 9 16 358 352 353 348 3 324 321 235 220 176 155 280 311 299 328 299 253 226 213 215 203 207 211 212 212 215 220 224 224 222 220 228 229 233 236 236 233 224 219 219 226 237 237 234 235 240 236 236 231 225 228 233 241 245 237 240 244 239 240 243
320 190 206 213 235 241 217 226 211 212 198 197 223 329 8 33 12 68 113 69 38 40 49 13 27 347 64 17 22 346 1 356 8 356 10 83 108 1 261 297 356 292 283 222 203 209 214 189 196 202 206 211 216 221 219 228 227 234 238 237 240 241 238 237 228 223 226 233 238 236 238 244 243 239 236 230 230 227 227 229 228 212 226 236 241
311 280 240 224 221 214 218 248 247 261 345 316 277 266 122 99 93 91 58 58 37 36 27 20 24 27 26 37 31 27 1 318 317 340 348 49 35 1 310 256 211 323 329 307 190 189 193 203 213 218 210 211 208 211 217 223 229 233 236 239 242 244 243 246 244 237 233 236 231 231 232 236 240 239 238 219 229 238 234 233 221 214 229 231 229
323 336 314 291 300 336 335 342 346 359 350 3 65 83 86 97 80 58 50 40 36 42 35 23 18 30 26 17 18 9 27 16 332 331 4 343 134 160 306 316 357 286 284 336 4 150 176 194 208 225 228 219 216 213 219 221 231 236 237 239 238 236 234 236 238 241 245 241 240 239 235 237 240 238 231 217 229 233 228 224 215 221 223 228 230
345 2 297 287 314 353 346 336 348 18 45 63 70 77 81 71 66 61 49 37 30 40 40 29 40 44 24 11 19 19 12 342 1 356 299 237 108 32 297 141 162 298 298 41 341 325 248 225 208 214 209 215 220 224 227 225 224 232 238 245 244 239 237 234 234 234 239 245 246 245 240 240 241 240 228 222 229 228 226 224 222 223 224 227 229
260 336 288 325 338 310 348 15 32 63 74 82 83 77 74 72 65 60 50 29 38 44 43 39 49 42 40 27 8 7 356 355 4 15 13 26 20 14 322 321 262 246 296 355 318 49 307 267 242 225 222 229 226 207 214 235 237 241 238 236 240 237 235 238 238 234 230 225 231 240 244 243 247 238 228 226 224 227 224 221 221 224 226 227 229
167 222 240 256 297 30 74 59 51 64 76 82 79 70 67 66 58 59 51 40 44 45 37 40 36 32 28 18 358 10 359 356 14 14 11 34 39 12 8 335 334 11 359 323 331 99 255 279 227 199 223 246 242 236 229 213 235 244 245 244 240 237 232 235 237 241 243 242 232 218 215 222 223 231 229 225 224 225 228 227 223 226 226 227 230
187 110 55 122 108 97 60 69 79 80 83 90 88 81 73 74 59 53 49 26 52 45 33 46 38 32 20 5 23 8 355 3 15 9 6 6 23 32 41 45 222 300 338 331 346 268 303 349 331 248 224 257 255 239 251 260 272 275 264 252 254 256 245 238 236 237 241 242 245 240 227 210 213 222 227 226 228 230 228 228 229 231 235 235 235
112 97 88 88 102 91 79 86 83 87 89 88 88 80 71 67 64 51 46 27 55 67 63 59 28 28 19 17 18 7 6 4 15 11 5 15 22 24 36 37 314 174 279 295 266 219 280 276 99 303 295 266 265 246 243 262 263 265 258 253 251 246 249 245 238 228 229 233 237 243 241 229 225 227 228 231 234 236 236 237 237 237 238 242 247
118 106 98 98 89 79 66 69 79 81 85 84 83 74 66 59 55 54 18 10 18 17 33 79 32 23 18 17 13 14 1 19 15 5 13 18 23 23 27 26 39 76 185 189 282 353 334 349 19 8 353 340 316 319 326 290 291 276 263 271 295 291 280 272 258 253 246 241 239 244 249 231 224 231 232 228 231 235 236 238 239 240 243 246 253
108 113 106 101 83 63 90 100 88 90 89 87 85 77 73 63 44 41 28 34 25 354 355 25 31 43 25 19 7 11 11 15 15 13 15 25 24 22 31 31 33 45 44 51 83 334 27 360 341 7 354 351 347 8 1 312 310 35 46 156 244 259 262 260 265 249 250 258 257 256 254 244 236 239 244 245 243 244 245 243 243 243 246 253 258
128 145 133 116 84 89 98 104 95 88 89 90 91 89 81 73 59 35 15 41 34 21 1 5 27 49 36 23 2 9 6 26 18 15 21 23 28 32 33 38 36 35 59 72 85 313 349 10 331 336 357 354 343 356 357 348 333 346 7 355 318 314 303 80 121 187 233 246 256 260 254 240 237 240 244 250 253 253 252 248 248 254 260 264 302
115 119 103 99 107 105 103 102 99 92 89 79 77 89 80 69 59 46 25 31 45 11 25 12 15 43 31 23 2 1 18 38 7 12 21 23 32 40 41 42 40 25 44 56 39 346 301 359 346 344 341 355 352 6 6 353 342 333 334 336 356 30 13 18 18 8 339 286 268 269 254 236 229 233 234 240 247 249 251 253 255 257 267 140 186
55 92 99 108 104 107 107 106 106 102 89 81 81 86 80 68 41 29 35 34 37 17 39 30 13 6 28 24 11 358 20 40 6 13 5 17 31 50 43 56 51 35 18 61 39 29 331 335 353 349 352 358 341 357 1 350 341 337 343 342 356 15 51 41 49 61 46 38 34 11 225 216 218 226 229 231 241 247 252 258 272 285 292 115 167
51 92 99 90 104 106 105 111 110 109 101 79 66 77 73 68 42 6 353 2 37 32 39 47 30 354 34 3 10 338 339 29 356 355 353 357 28 61 58 72 78 60 41 60 64 13 345 324 326 338 342 342 341 337 342 340 331 330 330 348 354 8 23 41 78 116 11 51 53 36 10 216 222 221 218 222 244 268 287 322 53 102 97 121 146
52 53 104 115 104 110 108 104 103 93 78 75 69 61 61 56 47 21 7 2 10 356 345 66 90 31 34 13 355 319 327 16 348 342 339 327 350 58 60 45 81 69 96 86 99 107 281 323 316 322 310 320 305 326 325 323 334 334 339 318 337 23 13 6 3 39 12 80 80 86 75 285 263 255 239 206 170 206 246 248 149 146 151 156 172
32 52 77 101 113 122 117 108 81 68 70 74 67 51 39 41 45 24 10 359 5 346 320 332 111 321 3 324 316 295 297 309 306 309 306 315 302 43 80 39 52 18 154 151 166 129 343 312 300 286 294 283 269 304 314 332 331 332 337 354 337 21 20 359 345 340 21 106 115 129 147 163 214 242 262 260 234 228 229 219 203 190 195 196 188
28 42 73 88 124 87 79 77 78 74 67 63 62 55 39 24 19 13 2 357 345 335 332 314 353 232 286 315 350 290 273 283 287 276 253 251 299 55 123 77 309 287 311 300 271 265 279 275 286 306 319 319 323 304 297 316 323 326 333 328 346 34 40 22 360 340 322 337 331 298 178 187 196 212 236 255 264 266 272 280 276 247 210 214 181
28 25 50 71 63 86 83 80 74 76 69 58 48 32 21 17 10 5 352 339 334 329 326 326 322 336 309 329 331 314 288 275 292 281 263 302 297 208 194 192 269 332 314 309 309 306 300 295 291 270 290 298 267 293 297 308 291 271 313 332 332 109 48 40 6 334 339 349 334 317 306 235 192 190 224 246 258 266 277 283 282 283 277 164 172
43 54 82 87 85 84 88 85 79 71 64 53 37 24 16 9 357 338 337 329 334 330 330 328 328 328 314 263 18 343 311 293 299 330 48 20 351 359 340 343 331 289 282 285 291 288 289 281 270 286 274 290 298 280 291 336 357 330 348 326 319 326 1 7 261 281 305 354 355 336 6 22 352 210 200 209 229 246 256 264 273 278 276 265 168
74 89 107 108 101 89 77 77 72 63 60 45 40 21 350 335 339 337 340 333 331 334 329 324 326 312 286 188 72 321 33 37 43 47 42 42 243 359 306 294 261 255 273 281 275 285 278 274 283 271 280 286 277 279 291 277 240 242 277 10 314 321 326 348 326 290 297 350 349 30 2 349 356 333 343 155 236 224 235 240 249 255 267 267 236
50 86 91 88 91 95 91 77 66 56 46 33 25 10 8 0 347 339 335 328 334 336 338 330 327 308 321 353 33 56 41 36 29 23 12 3 355 342 312 277 275 275 274 274 278 270 271 278 269 269 279 272 266 261 255 238 235 269 20 6 299 298 326 327 303 296 336 24 24 360 318 311 331 302 318 290 285 279 243 208 217 229 249 255 250
61 102 98 95 93 91 91 88 73 57 34 22 15 7 8 359 3 10 0 351 357 3 8 19 358 11 14 49 43 44 46 26 20 12 7 1 356 347 338 331 324 315 294 297 285 268 271 270 269 273 261 272 273 263 260 257 227 209 207 217 260 272 264 309 303 309 299 65 63 358 314 298 282 259 247 245 258 260 259 249 254 253 255 264 275
96 103 99 100 103 101 95 89 83 72 40 30 9 9 8 12 31 35 21 22 29 33 25 21 5 354 34 63 30 11 24 41 14 356 353 358 355 350 344 339 338 328 327 310 322 313 284 290 294 277 272 261 274 277 269 260 261 249 237 228 219 227 248 224 188 220 257 57 55 338 291 293 278 244 260 246 229 207 221 231 242 247 248 251 253
110 103 110 107 107 110 110 104 90 63 38 35 7 11 9 11 32 41 30 33 36 27 15 6 360 357 44 76 53 16 342 6 358 333 344 336 338 339 342 340 331 333 337 327 329 317 250 265 274 284 268 253 259 259 259 269 252 269 262 265 244 224 216 227 224 228 276 233 343 263 272 275 283 273 276 271 269 251 194 205 226 223 237 232 229
105 109 111 114 118 114 114 109 104 85 41 33 6 13 14 19 36 48 37 42 39 21 11 7 5 11 77 106 76 11 331 328 318 320 326 329 320 325 326 321 318 326 333 329 330 330 326 305 290 284 281 269 269 253 260 272 270 257 243 244 233 258 247 238 230 252 272 228 231 189 288 277 237 231 255 272 282 268 193 242 244 265 267 273 83
126 131 135 128 126 119 116 116 116 92 9 41 20 23 17 22 31 41 31 29 22 13 1 6 4 12 135 152 148 324 297 317 305 332 315 304 321 318 323 318 315 309 306 298 305 309 301 300 295 283 285 284 270 270 268 261 248 249 229 229 224 230 256 280 286 250 269 249 194 156 228 265 267 184 247 256 268 264 272 285 287 310 341 32 69
98 110 109 121 125 129 131 126 115 109 321 29 31 33 23 17 31 29 27 25 14 360 354 355 4 338 203 206 188 298 304 296 312 329 325 337 323 340 328 319 312 306 297 298 314 315 314 301 288 282 279 276 283 280 281 266 253 256 267 269 270 270 287 285 275 286 274 287 184 171 214 266 263 182 258 269 325 308 3 360 309 301 355 57 58
109 108 129 128 144 139 147 154 142 148 135 75 52 41 29 21 33 26 19 15 12 355 339 336 353 335 283 246 317 320 308 294 323 339 318 324 354 341 325 313 302 299 296 303 314 315 310 307 301 301 303 304 308 313 307 288 275 240 201 228 240 202 218 245 259 262 265 262 70 179 184 248 247 175 278 313 336 37 72 340 331 38 48 81 71
113 123 124 121 140 162 153 184 172 157 191 188 91 36 36 20 30 37 14 29 4 345 334 335 352 355 312 332 12 352 340 318 338 331 316 338 6 326 314 314 320 321 316 320 320 313 318 320 316 312 306 301 320 330 321 303 285 259 180 227 217 169 216 221 235 250 298 289 236 165 151 225 253 72 230 293 25 85 1 332 53 30 109 90 69
120 123 103 101 105 136 182 184 196 158 185 172 72 35 39 15 18 46 30 41 11 343 347 337 347 357 336 342 354 11 5 354 333 315 341 12 333 316 308 320 323 320 312 316 316 317 325 325 320 316 316 327 337 331 341 24 45 13 214 240 258 209 213 221 226 276 314 280 243 137 175 276 97 290 151 125 41 310 10 27 29 21 99 111 91